観測年月日,2015/10/15,,,
観測者,荒川　聡太郎,,,
観測地点,2,,,
温度計番号,A028,,,
,,,,
時刻,気温,風向,風速,備考
 15:00:00,   19.702778337740579     
 15:01:00,   20.508758582253268     
 15:02:00,   20.508758582253268     
 15:03:00,   20.408011051689186     
 15:04:00,   20.408011051689186     
 15:05:00,   20.508758582253268     
 15:06:00,   20.307263521125098     
 15:07:00,   20.105768459996924     
 15:08:00,   20.206515990561012     
 15:09:00,   20.105768459996924     
 15:10:00,   20.005020929432835     
 15:11:00,   20.005020929432835     
 15:12:00,   20.005020929432835     
 15:13:00,   20.005020929432835     
 15:14:00,   20.005020929432835     
 15:15:00,   20.005020929432835     
 15:16:00,   19.904273398868749     
 15:17:00,   20.105768459996924     
 15:18:00,   20.206515990561012     
 15:19:00,   20.307263521125098     
 15:20:00,   20.408011051689186     
 15:21:00,   20.408011051689186     
 15:22:00,   20.508758582253268     
 15:23:00,   20.508758582253268     
 15:24:00,   20.408011051689186     
 15:25:00,   20.307263521125098     
 15:26:00,   20.206515990561012     
 15:27:00,   20.105768459996924     
 15:28:00,   19.904273398868749     
 15:29:00,   19.904273398868749     
 15:30:00,   19.803525868304664     
 15:31:00,   19.803525868304664     
 15:32:00,   19.702778337740579     
 15:33:00,   19.501283276612401     
 15:34:00,   19.400535746048316     
 15:35:00,   19.400535746048316     
 15:36:00,   19.299788215484227     
 15:37:00,   19.098293154356057     
 15:38:00,   19.299788215484227     
 15:39:00,   19.199040684920146     
 15:40:00,   19.199040684920146     
 15:41:00,   19.199040684920146     
 15:42:00,   19.299788215484227     
 15:43:00,   19.400535746048316     
 15:44:00,   19.199040684920146     
 15:45:00,   19.098293154356057     
 15:46:00,   19.098293154356057     
 15:47:00,   19.199040684920146     
 15:48:00,   19.199040684920146     
 15:49:00,   19.098293154356057     
 15:50:00,   18.997545623791968     
 15:51:00,   18.997545623791968     
 15:52:00,   18.997545623791968     
 15:53:00,   19.098293154356057     
 15:54:00,   19.199040684920146     
 15:55:00,   19.199040684920146     
 15:56:00,   19.098293154356057     
 15:57:00,   19.098293154356057     
 15:58:00,   19.199040684920146     
 15:59:00,   19.199040684920146     
 16:00:00,   19.199040684920146     
 16:01:00,   19.299788215484227     
 16:02:00,   19.098293154356057     
 16:03:00,   18.997545623791968     
 16:04:00,   18.796050562663794     
 16:05:00,   18.896798093227883     
 16:06:00,   18.896798093227883     
 16:07:00,   18.997545623791968     
 16:08:00,   18.997545623791968     
 16:09:00,   18.896798093227883     
 16:10:00,   18.997545623791968     
 16:11:00,   18.997545623791968     
 16:12:00,   18.896798093227883     
 16:13:00,   18.796050562663794     
 16:14:00,   18.796050562663794     
 16:15:00,   18.695303032099709     
 16:16:00,   18.796050562663794     
 16:17:00,   18.896798093227883     
 16:18:00,   18.896798093227883     
 16:19:00,   18.796050562663794     
 16:20:00,   18.695303032099709     
 16:21:00,   18.695303032099709     
 16:22:00,   18.695303032099709     
 16:23:00,   18.796050562663794     
 16:24:00,   18.695303032099709     
 16:25:00,   18.695303032099709     
 16:26:00,   18.594555501535623     
 16:27:00,   18.695303032099709     
 16:28:00,   18.594555501535623     
 16:29:00,   18.493807970971535     
 16:30:00,   18.594555501535623     
 16:31:00,   18.695303032099709     
 16:32:00,   18.796050562663794     
 16:33:00,   18.695303032099709     
 16:34:00,   18.594555501535623     
 16:35:00,   18.594555501535623     
 16:36:00,   18.695303032099709     
 16:37:00,   18.594555501535623     
 16:38:00,   18.493807970971535     
 16:39:00,   18.292312909843361     
 16:40:00,   18.292312909843361     
 16:41:00,   18.191565379279275     
 16:42:00,   18.191565379279275     
 16:43:00,   18.292312909843361     
 16:44:00,   18.191565379279275     
 16:45:00,   18.090817848715186     
 16:46:00,   18.090817848715186     
 16:47:00,   18.191565379279275     
 16:48:00,   18.292312909843361     
 16:49:00,   18.292312909843361     
 16:50:00,   18.191565379279275     
 16:51:00,   18.090817848715186     
 16:52:00,   18.191565379279275     
 16:53:00,   18.090817848715186     
 16:54:00,   18.090817848715186     
 16:55:00,   18.090817848715186     
 16:56:00,   18.191565379279275     
 16:57:00,   18.191565379279275     
 16:58:00,   18.191565379279275     
 16:59:00,   18.090817848715186     
 17:00:00,   18.090817848715186     
